Hourly Data Report for April 18, 2018

CLYDE RIVER A
NUNAVUT
Current Station Operator: NAVCAN

70°29'09.000" N
68°31'01.000" W
26.50 m
2400804
71090
YCY

Download Data

Hourly Data (April 2018)
Hourly Data Report for April 18, 2018
TIME
LST
Temp Definition
°C
Dew Point Definition
°C
Rel Hum Definition
%
Precip. Amount Definition
mm

Wind Dir Definition
10's deg

Wind Spd Definition
km/h
Visibility Definition
km
Stn Press Definition
kPa
Hmdx Definition


Wind Chill Definition


Weather Definition


00:00 -22.4 -24.3 85 0.0 30 8 16.1 102.29   -29 LegendNANA
01:00 -22.6 -24.4 85 0.0 30 5 16.1 102.32   -27 LegendNANA
02:00 -22.8 -24.6 86 0.0   0 16.1 102.34     LegendNANA
03:00 -25.0 -27.1 83 0.0 31 9 16.1 102.37   -33 LegendNANA
04:00 -22.5 -24.4 85 0.0 28 8 16.1 102.41   -29 LegendNANA
05:00 -22.4 -24.2 85 0.0 28 8 16.1 102.45   -29 LegendNANA
06:00 -20.6 -22.2 87 0.0 27 8 16.1 102.49   -27 LegendNANA
07:00 -20.4 -22.3 85 0.0 25 9 11.3 102.49   -27 LegendNANA
08:00 -20.3 -22.0 87 0.0 30 5 16.1 102.50   -25 LegendNANA
09:00 -19.0 -21.0 85 0.0 35 5 16.1 102.50   -23 LegendNANA
10:00 -18.1 -19.9 86 0.0 35 8 16.1 102.51   -24 LegendNANA
11:00 -16.1 -17.8 87 0.0 32 8 16.1 102.50   -22 LegendNANA
12:00 -16.5 -18.7 83 0.0 26 8 16.1 102.50   -22 LegendNANA
13:00 -16.1 -18.8 80 0.0 26 8 16.1 102.52   -22 LegendNANA
14:00 -15.5 -18.5 78 0.0 26 5 16.1 102.54   -19 LegendNANA
15:00 -15.7 -18.2 82 0.0   0 2.8 102.56     Fog
16:00 -16.4 -18.8 82 0.0 33 4 16.1 102.58   -19 LegendNANA
17:00 -17.0 -19.4 82 0.0 29 4 16.1 102.56   -20 LegendNANA
18:00 -17.4 -19.0 88 0.0   0 16.1 102.57     LegendNANA
19:00 -21.6 -23.6 84 0.0 28 4 16.1 102.56   -25 LegendNANA
20:00 -23.0 -25.2 83 0.0   0 16.1 102.54     LegendNANA
21:00 -22.5 -24.3 86 0.0   0 16.1 102.51     LegendNANA
22:00 -23.3 -25.3 84 0.0 25 4 16.1 102.47   -27 LegendNANA
23:00 -23.9 -26.1 83 0.0 26 4 16.1 102.44   -28 LegendNANA

Notes on Data Quality.

Legend

  • E = Estimated
  • M = Missing
  • NA = Not Available*
  • [empty] = Indicates an unobserved value
Date modified: